Location: London
(51.5074°N, 0.1278°W)
Time: 22:02:07
(UTC+01:00)

N. Korean satellite - Pass Details

Date: 27 September 2021
Orbit: 450 x 494 km, 97.3° (Epoch: 28 October)

Event Time Altitude Azimuth Distance (km) Brightness Sun altitude
Rises 05:06:37 0° 32° (NNE) 2,536 11.1 -17.4°
Reaches altitude 10° 05:10:00 10° 68° (ENE) 1,663 10.6 -16.9°
Maximum altitude 05:11:14 11° 88° (E) 1,576 10.3 -16.7°
Drops below altitude 10° 05:12:28 10° 108° (ESE) 1,666 10.1 -16.5°
Sets 05:15:52 0° 143° (SE) 2,551 10.5 -16.0°
